Location: Melizzano
(41.1500°N, 14.5000°E)
Time: 19:15:49
(UTC+00:00)

Thor Agena Rocket - Pass Details

Date: 11 May 2021
Orbit: 760 x 807 km, 99.0° (Epoch: 21 June)

Event Time Altitude Azimuth Distance (km) Brightness Sun altitude
Rises 22:27:03 0° 19° (NNE) 3,306 7.7 -30.3°
Reaches altitude 10° 22:29:27 10° 24° (NNE) 2,378 6.7 -30.3°
Enters shadow 22:33:14 41° 56° (NE) 1,144 4.5 -30.4°
